| time (UTC) | temp F | wind direction | speed MPH | gust MPH | rain 1hr in | rain 24hr in | rain mn in | humidity % | barometer mb |
| 20260504220106 | 77 | 165 | 0.0 | 5.0 | 0.00 | 0.00 | 0.00 | 41 | 1013.5 |
| 20260504214600 | 77 | 62 | 1.0 | 6.0 | 0.00 | 0.00 | 0.00 | 40 | 1013.6 |
| 20260504213110 | 78 | 276 | 1.0 | 7.0 | 0.00 | 0.00 | 0.00 | 40 | 1013.6 |
| 20260504211556 | 78 | 249 | 1.0 | 5.0 | 0.00 | 0.00 | 0.00 | 40 | 1013.6 |
| 20260504210054 | 77 | 267 | 1.0 | 3.0 | 0.00 | 0.00 | 0.00 | 39 | 1013.6 |
| 20260504204601 | 77 | 148 | 2.0 | 6.0 | 0.00 | 0.00 | 0.00 | 39 | 1013.8 |
| 20260504203050 | 77 | 57 | 1.0 | 3.0 | 0.00 | 0.00 | 0.00 | 33 | 1014.0 |
| 20260504201548 | 77 | 257 | 0.0 | 5.0 | 0.00 | 0.00 | 0.00 | 39 | 1014.2 |
| 20260504200045 | 77 | 206 | 3.0 | 7.0 | 0.00 | 0.00 | 0.00 | 39 | 1014.4 |
| 20260504194542 | 77 | 234 | 0.0 | 6.0 | 0.00 | 0.00 | 0.00 | 40 | 1014.6 |
| 20260504193054 | 76 | 124 | 3.0 | 7.0 | 0.00 | 0.00 | 0.00 | 43 | 1014.7 |
| 20260504191538 | 77 | 75 | 0.0 | 10.0 | 0.00 | 0.00 | 0.00 | 42 | 1015.0 |
| 20260504190040 | 76 | 222 | 1.0 | 9.0 | 0.00 | 0.00 | 0.00 | 44 | 1015.2 |
| 20260504184533 | 76 | 184 | 1.0 | 6.0 | 0.00 | 0.00 | 0.00 | 47 | 1015.4 |
| 20260504183034 | 76 | 178 | 3.0 | 8.0 | 0.00 | 0.00 | 0.00 | 47 | 1015.6 |
| 20260504181534 | 75 | 360 | 1.0 | 5.0 | 0.00 | 0.00 | 0.00 | 46 | 1015.7 |
| 20260504180024 | 76 | 140 | 1.0 | 7.0 | 0.00 | 0.00 | 0.00 | 46 | 1015.9 |
| 20260504174523 | 76 | 213 | 1.0 | 5.0 | 0.00 | 0.00 | 0.00 | 48 | 1016.0 |
| 20260504173020 | 75 | 306 | 0.0 | 7.0 | 0.00 | 0.00 | 0.00 | 50 | 1016.3 |
| 20260504171517 | 75 | 148 | 3.0 | 8.0 | 0.00 | 0.00 | 0.00 | 48 | 1016.6 |
| 20260504081553 | 46 | 211 | 0.0 | 0.0 | 0.00 | 0.00 | 0.00 | 91 | 1017.4 |
| 20260504050024 | 49 | 211 | 0.0 | 0.0 | 0.00 | 0.00 | 0.00 | 87 | 1018.4 |
| 20260504044533 | 49 | 211 | 0.0 | 0.0 | 0.00 | 0.00 | 0.00 | 87 | 1018.5 |
| 20260504043034 | 49 | 211 | 0.0 | 0.0 | 0.00 | 0.00 | 0.00 | 85 | 1018.6 |
| 20260504041523 | 49 | 211 | 0.0 | 0.0 | 0.00 | 0.00 | 0.00 | 83 | 1018.6 |
| 20260504040024 | 50 | 211 | 0.0 | 0.0 | 0.00 | 0.00 | 0.00 | 83 | 1018.8 |
| 20260504034522 | 50 | 211 | 0.0 | 0.0 | 0.00 | 0.00 | 0.00 | 82 | 1018.8 |
| 20260504033021 | 51 | 211 | 0.0 | 0.0 | 0.00 | 0.00 | 0.00 | 80 | 1018.8 |
| 20260504031522 | 52 | 211 | 0.0 | 0.0 | 0.00 | 0.00 | 0.00 | 78 | 1018.8 |
| 20260504030021 | 52 | 211 | 0.0 | 0.0 | 0.00 | 0.00 | 0.00 | 77 | 1018.7 |
| 20260504024518 | 53 | 211 | 0.0 | 0.0 | 0.00 | 0.00 | 0.00 | 76 | 1018.5 |
| 20260504023017 | 53 | 211 | 0.0 | 0.0 | 0.00 | 0.00 | 0.00 | 76 | 1018.4 |
| 20260504021518 | 53 | 211 | 0.0 | 0.0 | 0.00 | 0.00 | 0.00 | 74 | 1018.3 |
| 20260504020017 | 54 | 211 | 0.0 | 0.0 | 0.00 | 0.00 | 0.00 | 72 | 1018.2 |
| 20260504014515 | 55 | 211 | 0.0 | 0.0 | 0.00 | 0.00 | 0.00 | 70 | 1018.1 |
| 20260504013019 | 55 | 211 | 0.0 | 0.0 | 0.00 | 0.00 | 0.00 | 69 | 1017.9 |
| 20260504011515 | 57 | 211 | 0.0 | 0.0 | 0.00 | 0.00 | 0.00 | 66 | 1017.9 |
| 20260504010014 | 58 | 211 | 0.0 | 0.0 | 0.00 | 0.00 | 0.00 | 65 | 1017.8 |
| 20260504004518 | 59 | 212 | 0.0 | 0.0 | 0.00 | 0.00 | 0.00 | 62 | 1017.7 |
| 20260504003013 | 61 | 211 | 0.0 | 0.0 | 0.00 | 0.00 | 0.00 | 60 | 1017.5 |
| 20260504001512 | 63 | 211 | 0.0 | 0.0 | 0.00 | 0.00 | 0.00 | 57 | 1017.6 |
| 20260504000009 | 65 | 211 | 0.0 | 0.0 | 0.00 | 0.00 | 0.00 | 52 | 1017.5 |
| 20260503234516 | 66 | 212 | 0.0 | 0.0 | 0.00 | 0.00 | 0.00 | 50 | 1017.4 |
| 20260503233008 | 67 | 211 | 0.0 | 0.0 | 0.00 | 0.00 | 0.00 | 47 | 1017.4 |
| 20260503231506 | 68 | 211 | 0.0 | 0.0 | 0.00 | 0.00 | 0.00 | 46 | 1017.6 |
| 20260503230008 | 68 | 211 | 0.0 | 2.0 | 0.00 | 0.00 | 0.00 | 38 | 1017.6 |
| 20260503224504 | 69 | 17 | 0.0 | 4.0 | 0.00 | 0.00 | 0.00 | 40 | 1017.7 |
| 20260503223004 | 70 | 325 | 0.0 | 6.0 | 0.00 | 0.00 | 0.00 | 42 | 1017.7 |
| 20260503221505 | 70 | 350 | 0.0 | 2.0 | 0.00 | 0.00 | 0.00 | 42 | 1017.7 |